www.pogodaiklimat.ru

Погода и климат >> Архив погоды >> Россия >> Краснодарский край >> Краснодар


АРХИВ ПОГОДЫ в Краснодаре

Время (UTC), дата Ветер
(напр.,м/с)
 
Видим.   Явления Облачность Т
(С)
Тd
(С)
f
(%)
Тe
(С)
Тes
(С)
Комфортность P
(гПа)
Po
(гПа)
Тmin
(С)
Tmax
(С)
R
(мм)
R24
(мм)
S
(см)
09 17.03 ЮВ 5 10 км {ливн. осадки} 9/8 600 м
[Cb cap Ac As]
+8.2 +2.5 67 +5 +5 по сезону 1009.8 1005.6
12 17.03 Ю 5 10 км 9/8 1000 м
[Cb cap Ac As]
+8.8 +3.4 69 +6 +6 по сезону 1010.4 1006.2
15 17.03 ЮЗ 7-11
{12}
10 км {ливн. осадки} 10/10 300 м
[Cb cap]
+5.3 +2.8 84 -0 -0 холодно 1013.9 1009.6 +9.4 1
18 17.03 ЮЗ 5 10 км {ливн. осадки} 10/10 600 м
[Cb cap]
+6.3 +4.0 85 +2 +2 по сезону 1017.0 1012.7
21 17.03 ЮЗ 4 10 км 10/10 600 м
[Cb cap]
+5.0 +2.2 82 +1 +1 по сезону 1018.0 1013.7
00 18.03 ЮЗ 2 10 км 10/10 600 м
[Cb cap]
+2.7 +1.2 90 -1 -1 по сезону 1019.5 1015.1
03 18.03 Ю 2 10 км 10/10 600 м
[Cb cap]
+2.8 +1.5 91 -0 -0 по сезону 1020.5 1016.1 +1.4 2
06 18.03 ЮЗ 2 10 км 10/0
[Ac As]
+6.7 +3.8 82 +4 +6 по сезону 1022.6 1018.3
09 18.03 З 3 10 км 10/8 1000 м
[Sc diur, vesp Ac As]
+9.3 +2.9 64 +7 +8 по сезону 1023.4 1019.1
12 18.03 СЗ 2 10 км 10/8 600 м
[Cb cap Ac trans]
+10.0 +2.7 60 +9 +9 по сезону 1023.5 1019.2
15 18.03 С 2 10 км 3/3 600 м
[Cu med, cong]
+9.9 +3.2 63 +9 +9 тепло 1023.8 1019.5 +12.0
18 18.03 С 1 10 км ясно +5.8 +3.0 82 +5 +5 по сезону 1024.7 1020.4
21 18.03 С 2 10 км ясно +4.5 +2.4 86 +2 +2 по сезону 1025.2 1020.8
00 19.03 СВ 3 10 км ясно +3.6 +2.0 89 -0 -0 по сезону 1024.5 1020.1
03 19.03 СВ 2 10 км ясно +1.6 +0.6 93 -2 -2 прохладно 1024.9 1020.5 +1.5
06 19.03 СВ 3 10 км ясно +6.2 +2.7 78 +3 +7 по сезону 1025.2 1020.9 +1.3
09 19.03 СВ 6 10 км ясно +12.5 +2.7 51 +10 +15 тепло 1024.3 1020.1
12 19.03 СВ 6 10 км 3/0
[Ac As]
+14.5 +3.6 48 +13 +15 тепло 1023.3 1019.1
15 19.03 СВ 6 10 км ясно +12.0 +5.8 66 +9 +10 тепло 1022.9 1018.7 +14.8
18 19.03 СВ 5 10 км ясно +7.5 +4.1 79 +4 +4 по сезону 1023.2 1018.9
21 19.03 С 4 10 км ясно +5.0 +2.8 86 +1 +1 по сезону 1023.2 1018.9
00 20.03 С 3 10 км ясно +3.5 +1.7 88 -0 -0 по сезону 1022.8 1018.4
03 20.03 С 2 10 км ясно +2.3 +0.7 89 -1 -1 по сезону 1022.6 1018.2 +1.9
06 20.03 В 6 10 км 3/3 300 м
[St]
+6.4 +2.5 76 +2 +3 по сезону 1022.7 1018.4 +1.6
09 20.03 В 2 10 км 3/3 600 м
[St]
+11.0 +4.3 63 +10 +18 тепло 1022.1 1017.9
12 20.03 СВ 4 10 км ясно +14.8 +4.5 50 +14 +19 тепло 1020.9 1016.7
15 20.03 СВ 4 10 км ясно +14.4 +2.4 44 +13 +13 тепло 1020.7 1016.5 +15.8
18 20.03 С 4 10 км ясно +9.7 +2.5 61 +7 +7 тепло 1022.0 1017.7
21 20.03 С 2 10 км ясно +6.0 +1.9 75 +4 +4 по сезону 1022.1 1017.8
00 21.03 З 2 10 км ясно +3.1 +1.5 89 0 0 по сезону 1022.5 1018.1
03 21.03 З 1 10 км ясно +2.4 +1.1 91 +1 +1 по сезону 1023.3 1018.9 +2.1
06 21.03 ЮЗ 5 10 км 3/0
[Ac trans]
+7.4 +2.7 72 +4 +6 по сезону 1024.5 1020.2 +1.7
09 21.03 ЮЗ 5 10 км 5/4 600 м
[Sc diur, vesp Ac trans]
+12.5 +3.0 52 +11 +14 тепло 1024.5 1020.3
12 21.03 ЮЗ 7 10 км 8/8 600 м
[Sc Ac As]
+13.0 +4.1 55 +11 +11 по сезону 1023.7 1019.5
15 21.03 З 5
{12}
10 км 9/8 600 м
[Cb cap Ac As]
+10.2 +3.2 62 +7 +7 по сезону 1024.5 1020.2 +14.2
18 21.03 З 4 10 км 10/10 600 м
[Sc]
+8.5 +4.0 73 +6 +6 по сезону 1026.0 1021.7
21 21.03 ЮЗ 4 10 км 10/10 600 м
[Sc]
+7.7 0.0 58 +5 +5 по сезону 1025.7 1021.4
00 22.03 ЮЗ 3 10 км 8/8 1000 м
[Sc Ac trans]
+7.0 +1.9 70 +4 +4 по сезону 1025.1 1020.8
03 22.03 З 5 10 км 8/8 600 м
[Sc Ac trans]
+7.5 -1.6 52 +4 +4 по сезону 1024.3 1020.0 +6.6
06 22.03 З 5 10 км 3/0
[Ac trans]
+8.4 +1.0 60 +5 +7 по сезону 1024.8 1020.5
09 22.03 З 7 10 км 3/3 1000 м
[Cu med, cong]
+10.8 0.0 47 +8 +10 по сезону 1024.1 1019.8
12 22.03 З 7-11
{12}
10 км 10/0
[Ac trans Cc]
+11.1 -3.0 37 +8 +10 по сезону 1022.6 1018.4
15 22.03 З 5 10 км 10/0
[Ac und]
+8.6 -3.1 44 +6 +6 по сезону 1021.5 1017.2 +12.5
18 22.03 Ю 4 10 км 10/0
[Ac und]
+7.2 -0.6 58 +4 +4 по сезону 1020.8 1016.5
21 22.03 Ю 8-12
{12}
10 км 10/0
[Ac und]
+8.6 +2.1 64 +4 +4 по сезону 1017.8 1013.5
00 23.03 ЮЗ 5
{15}
4000 м слаб. ливневой дождь 10/10 1000 м
[Cb cap]
+7.1 +4.7 85 +3 +3 по сезону 1016.3 1012.0
03 23.03 ЮЗ 5
{13}
4000 м слаб. ливневой дождь 10/10 300 м
[Cb cap]
+4.5 +1.4 80 -0 -0 прохладно 1016.0 1011.7 +4.2 8
06 23.03 З 5 10 км {ливн. осадки} 10/10 300 м
[Sc diur, vesp]
+5.1 +1.4 77 +1 +1 прохладно 1016.4 1012.1 +3.9
09 23.03 З 3 10 км 10/8 600 м
[Sc diur, vesp Ac trans Ci fib]
+7.9 -3.9 43 +6 +7 по сезону 1015.0 1010.7
12 23.03 З 4 10 км 10/8 1000 м
[Cb cap Ac trans Ci fib]
+7.8 -3.7 44 +5 +6 прохладно 1014.3 1010.0
15 23.03 З 4
{13}
10 км {ливн. осадки} 10/8 600 м
[Cb cap Ac trans]
+3.5 -0.4 76 -1 -1 очень
холодно
1015.9 1011.6 +9.8 0.8
18 23.03 ЮЗ 3 10 км {ливн. осадки} 6/3 1500 м
[Sc diur, vesp Ac As]
+2.9 -0.3 79 -1 -1 холодно 1016.7 1012.4
21 23.03 ЮЗ 3 10 км ясно +1.5 -1.7 79 -3 -3 холодно 1017.3 1012.9
00 24.03 ЮЗ 3 н/о н/о +1.0 -1.3 85 -3 -3 холодно 1017.2 1012.8
03 24.03 ЮЗ 4 10 км слаб. морось 10/10 200 м
[St]
+2.1 +0.6 90 -3 -3 холодно 1017.5 1013.1 -0.3 0.1

 

Местоположение метеостанции Краснодар (Краснодарский край, Россия): широта 45.05 долгота 39.03 высота над уровнем моря 29 м.

В архиве по умолчанию представлена погода в Краснодаре за последнюю неделю. Архивные данные за месяц целиком и за предыдущие месяцы, начиная с января 2011 года, Вы можете получить, выбрав интересующий диапазон дат из раскрывающегося списка и нажав кнопку "Ввод!".


*Определитесь, кто Вы:
робот инопланетянин человек

Внимание! Время в таблицах - всемирное. Для получения местного времени необходимо прибавить поправку, которая равна 3 ч.

Смотрите также архив погоды в соседних городах и на ближайших метеорологических станциях:

Погода в Горячем Ключе (Краснодарский край, Россия) (47 км)
Погода в Усть-Лабинске (Краснодарский край, Россия) (58 км)
Погода в Кореновске (Краснодарский край, Россия) (59 км)
Погода в Тимашевске (Краснодарский край, Россия) (65 км)
Погода в Славянске-на-Кубани (Краснодарский край, Россия) (76 км)
Погода в Белореченске (Краснодарский край, Россия) (76 км)
Погода в Крымске (Краснодарский край, Россия) (82 км)
Погода в Джубге (Краснодарский край, Россия) (84 км)
Погода в Горном (Краснодарский край, Россия) (88 км)
Погода в Геленджике (Краснодарский край, Россия) (92 км)

Пояснения к столбцам:

Ветер - указаны скорость ветра в м/с - средняя за 10 мин, порывы в срок и между сроками (в фигурных скобках) и направление, откуда дует ветер: С - северный, СВ - северо-восточный, В - восточный, ЮВ - юго-восточный, Ю - южный, ЮЗ - юго-западный, З - западный, СЗ - северо-западный.
Видимость - горизонтальная дальность видимости в метрах или километрах. При видимости от 1 до 10 км при отсутствии осадков обычно наблюдается дымка, при ухудшении видимости до 1 км и менее - туман. В сухую погоду видимость может ухудшаться дымом, пылью или мглою.
Явления - указаны атмосферные явления, наблюдавшиеся в срок или в последний час перед сроком; фигурными скобками обозначены явления, наблюдавшиеся между сроками (за 1-3 часа до срока); квадратными скобками обозначены град или гололедные отложения с указанием их диаметра в мм.
Облачность - указаны через наклонную черту общая и нижняя облачность в баллах и высота нижней границы облаков в метрах; квадратными скобками обозначены формы облаков: Ci - перистые, Cs - перисто-слоистые, Cc - перисто-кучевые, Ac - высококучевые, As - высокослоистые, Sc - слоисто-кучевые, Ns - слоисто-дождевые, Cu - кучевые, Cb - кучево-дождевые. Подробнее классификацию облаков см. в Атласе облаков (PDF).
T - Температура воздуха - температура, измеренная на высоте 2 м над землей.
Td - Температура точки росы - температура, при понижении до которой содержащийся в воздухе водяной пар достигнет насыщения.
f - Относительная влажность воздуха - влажноcть воздуха, измеренная на высоте 2 м над землей.
Te - Эффективная температура - температура, которую ощущает одетый по сезону человек в тени. Характеристика душности погоды. При расчете учитывается влияние влажности воздуха и скорости ветра на теплоощущения человека.
Tes - Эффективная температура на солнце - температура, которую ощущает человек, с поправкой на солнечный нагрев. Характеристика знойности погоды. Зависит от высоты солнца над горизонтом, облачности и скорости ветра. Ночью, в пасмурную погоду, а также при ветре 12 м/с и более поправка равна нулю.
P - Атмосферное давление - приведенное к уровню моря атмосферное давление.
Po - Атмосферное давление - измеренное на уровне метеостанции атмосферное давление.
Tmin - Минимальная температура - минимум температуры воздуха на высоте 2 м над землей.
Tmax - Максимальная температура - максимум температуры воздуха на высоте 2 м над землей.
R - Количество осадков - Количество выпавших осадков за период времени, мм. При наведении курсора мыши на число - период времени, за который выпало указанное количество осадков.
R24 - Количество осадков - Количество выпавших осадков за 24 часа, мм.
S - Снежный покров - Высота снежного покрова, см. При наведении курсора мыши на число - состояние снежного покрова и степень покрытия местности в баллах.